WAH16W KDFW-KVNY

Flight info

Callsign WAH16W
Flight time N/A
Altitude 38000
Route KATZZ2 BRHMA CNX/N0456F400 EED JANNY5
Aircraft CL60/M-SBDE1E2E3FGHIJ1J4J5J7M3RWXYZ/LB1V1D1

Departure

Time N/A
Airport Dallas Fort Worth International Airport (KDFW)

Arrival

Time 2026-04-30 04:46
Airport Van Nuys Airport (KVNY)
Time Latitude Longitude Altitude Speed Heading
2026-04-30 02:31 34.03376 -103.72272 38147 ft 312 kts 277°
2026-04-30 02:31 34.03840 -103.74866 38143 ft 315 kts 278°
2026-04-30 02:32 34.04770 -103.80057 38140 ft 321 kts 278°
2026-04-30 02:32 34.05715 -103.85375 38133 ft 325 kts 277°
2026-04-30 02:33 34.06675 -103.90755 38136 ft 325 kts 277°
2026-04-30 02:33 34.07615 -103.96090 38138 ft 324 kts 278°
2026-04-30 02:34 34.08549 -104.01417 38141 ft 323 kts 277°
2026-04-30 02:34 34.09482 -104.06758 38141 ft 323 kts 277°
2026-04-30 02:35 34.10406 -104.12037 38131 ft 323 kts 277°
2026-04-30 02:35 34.11332 -104.17345 38115 ft 322 kts 277°
2026-04-30 02:36 34.12257 -104.22636 38117 ft 321 kts 277°
2026-04-30 02:36 34.13191 -104.27963 38121 ft 325 kts 278°
2026-04-30 02:37 34.14128 -104.33334 38124 ft 329 kts 277°
2026-04-30 02:37 34.15077 -104.38792 38123 ft 332 kts 278°
2026-04-30 02:38 34.16035 -104.44315 38133 ft 335 kts 277°
2026-04-30 02:38 34.16988 -104.49828 38140 ft 337 kts 278°
2026-04-30 02:39 34.17942 -104.55361 38143 ft 338 kts 278°
2026-04-30 02:39 34.18901 -104.60929 38145 ft 339 kts 278°
2026-04-30 02:40 34.19870 -104.66557 38149 ft 341 kts 276°
2026-04-30 02:40 34.20838 -104.72207 38151 ft 344 kts 278°
2026-04-30 02:41 34.21804 -104.77861 38154 ft 346 kts 277°
2026-04-30 02:41 34.22777 -104.83579 38159 ft 348 kts 277°
2026-04-30 02:42 34.23751 -104.89319 38156 ft 350 kts 276°
2026-04-30 02:42 34.24736 -104.95138 38169 ft 352 kts 277°
2026-04-30 02:43 34.25718 -105.00944 38174 ft 353 kts 277°
2026-04-30 02:43 34.26692 -105.06722 38172 ft 350 kts 278°
2026-04-30 02:44 34.27652 -105.12444 38180 ft 346 kts 277°
2026-04-30 02:44 34.28601 -105.18119 38186 ft 345 kts 277°
2026-04-30 02:45 34.29551 -105.23839 38190 ft 346 kts 277°
2026-04-30 02:45 34.30490 -105.29517 38202 ft 347 kts 277°
2026-04-30 02:46 34.31435 -105.35242 38198 ft 348 kts 277°
2026-04-30 02:46 34.32380 -105.40974 38219 ft 348 kts 277°
2026-04-30 02:47 34.33326 -105.46725 38215 ft 350 kts 277°
2026-04-30 02:47 34.34278 -105.52533 38236 ft 350 kts 277°
2026-04-30 02:48 34.35219 -105.58290 38225 ft 351 kts 276°
2026-04-30 02:48 34.36164 -105.64092 38233 ft 351 kts 277°
2026-04-30 02:49 34.36974 -105.69933 38235 ft 350 kts 272°
2026-04-30 02:49 34.37439 -105.75784 38238 ft 350 kts 272°
2026-04-30 02:50 34.37904 -105.81602 38247 ft 349 kts 273°
2026-04-30 02:50 34.38371 -105.87463 38244 ft 349 kts 273°
2026-04-30 02:51 34.38835 -105.93322 38260 ft 349 kts 272°
2026-04-30 02:51 34.39298 -105.99190 38252 ft 350 kts 271°
2026-04-30 02:52 34.39761 -106.05080 38239 ft 351 kts 272°
2026-04-30 02:52 34.40218 -106.10940 38254 ft 350 kts 272°
2026-04-30 02:53 34.40672 -106.16785 38243 ft 350 kts 271°
2026-04-30 02:53 34.41124 -106.22646 38234 ft 349 kts 272°
2026-04-30 02:54 34.41575 -106.28519 38237 ft 349 kts 271°
2026-04-30 02:54 34.42020 -106.34359 38239 ft 349 kts 272°
2026-04-30 02:55 34.42462 -106.40193 38233 ft 349 kts 273°
2026-04-30 02:55 34.42902 -106.46044 38232 ft 349 kts 271°
2026-04-30 02:56 34.43340 -106.51902 38228 ft 350 kts 271°
2026-04-30 02:56 34.43779 -106.57812 38220 ft 350 kts 272°
2026-04-30 02:57 34.44211 -106.63662 38217 ft 350 kts 272°
2026-04-30 02:57 34.44642 -106.69535 38208 ft 351 kts 271°
2026-04-30 02:58 34.45071 -106.75423 38201 ft 350 kts 271°
2026-04-30 02:58 34.45497 -106.81305 38206 ft 349 kts 271°
2026-04-30 02:59 34.45917 -106.87157 38205 ft 349 kts 271°
2026-04-30 02:59 34.46334 -106.93005 38207 ft 349 kts 271°
2026-04-30 03:00 34.46748 -106.98843 38208 ft 350 kts 272°
2026-04-30 03:00 34.47160 -107.04696 38219 ft 350 kts 271°
2026-04-30 03:01 34.47570 -107.10572 38212 ft 349 kts 271°
2026-04-30 03:01 34.47977 -107.16430 38229 ft 349 kts 271°
2026-04-30 03:02 34.48379 -107.22269 38218 ft 350 kts 272°
2026-04-30 03:02 34.48782 -107.28166 38235 ft 350 kts 271°
2026-04-30 03:03 34.49180 -107.34013 38241 ft 350 kts 272°
2026-04-30 03:03 34.49771 -107.42801 38248 ft 350 kts 271°
2026-04-30 03:04 34.50164 -107.48686 38262 ft 351 kts 270°
2026-04-30 03:04 34.50555 -107.54600 38255 ft 352 kts 272°
2026-04-30 03:05 34.50941 -107.60477 38271 ft 351 kts 271°
2026-04-30 03:05 34.51327 -107.66393 38275 ft 352 kts 270°
2026-04-30 03:06 34.51712 -107.72345 38284 ft 354 kts 271°
2026-04-30 03:06 34.52096 -107.78303 38296 ft 353 kts 271°
2026-04-30 03:07 34.52471 -107.84182 38299 ft 352 kts 270°
2026-04-30 03:07 34.52845 -107.90099 38292 ft 352 kts 270°
2026-04-30 03:08 34.53217 -107.96029 38304 ft 353 kts 271°
2026-04-30 03:08 34.53584 -108.01932 38311 ft 352 kts 270°
2026-04-30 03:09 34.53951 -108.07862 38311 ft 353 kts 271°
2026-04-30 03:09 34.54313 -108.13779 38306 ft 354 kts 271°
2026-04-30 03:10 34.54675 -108.19721 38300 ft 354 kts 271°
2026-04-30 03:10 34.55033 -108.25671 38302 ft 353 kts 271°
2026-04-30 03:11 34.55387 -108.31583 38300 ft 353 kts 270°
2026-04-30 03:11 34.55740 -108.37535 38297 ft 353 kts 271°
2026-04-30 03:12 34.56088 -108.43446 38298 ft 354 kts 270°
2026-04-30 03:12 34.56493 -108.50382 38299 ft 355 kts 270°
2026-04-30 03:13 34.56781 -108.55373 38298 ft 355 kts 271°
2026-04-30 03:13 34.57122 -108.61327 38295 ft 355 kts 270°
2026-04-30 03:14 34.57464 -108.67320 38288 ft 356 kts 269°
2026-04-30 03:14 34.57803 -108.73356 38293 ft 357 kts 270°
2026-04-30 03:15 34.58139 -108.79343 38287 ft 356 kts 269°
2026-04-30 03:15 34.58469 -108.85313 38287 ft 355 kts 270°
2026-04-30 03:16 34.58796 -108.91264 38291 ft 355 kts 270°
2026-04-30 03:16 34.59121 -108.97245 38282 ft 355 kts 269°
2026-04-30 03:17 34.59442 -109.03198 38280 ft 356 kts 269°
2026-04-30 03:17 34.59762 -109.09179 38280 ft 356 kts 269°
2026-04-30 03:18 34.60132 -109.16166 38264 ft 356 kts 269°
2026-04-30 03:18 34.60392 -109.21131 38261 ft 356 kts 270°
2026-04-30 03:19 34.60704 -109.27121 38236 ft 356 kts 269°
2026-04-30 03:19 34.61013 -109.33138 38224 ft 356 kts 269°
2026-04-30 03:20 34.61318 -109.39120 38210 ft 356 kts 269°
2026-04-30 03:20 34.61620 -109.45102 38223 ft 357 kts 269°
2026-04-30 03:21 34.61921 -109.51119 38232 ft 358 kts 270°
2026-04-30 03:21 34.62218 -109.57122 38232 ft 358 kts 270°
2026-04-30 03:22 34.62515 -109.63165 38235 ft 358 kts 270°
2026-04-30 03:22 34.62787 -109.68788 38234 ft 360 kts 269°
2026-04-30 03:23 34.63091 -109.75143 38217 ft 360 kts 268°
2026-04-30 03:23 34.63380 -109.81220 38220 ft 360 kts 269°
2026-04-30 03:24 34.63666 -109.87280 38220 ft 360 kts 269°
2026-04-30 03:24 34.63947 -109.93317 38215 ft 359 kts 268°
2026-04-30 03:25 34.64228 -109.99394 38206 ft 361 kts 270°
2026-04-30 03:25 34.64505 -110.05487 38201 ft 362 kts 269°
2026-04-30 03:26 34.64779 -110.11575 38209 ft 361 kts 269°
2026-04-30 03:26 34.65051 -110.17676 38200 ft 360 kts 268°
2026-04-30 03:27 34.65320 -110.23769 38211 ft 360 kts 269°
2026-04-30 03:27 34.65584 -110.29826 38214 ft 360 kts 269°
2026-04-30 03:28 34.65846 -110.35892 38212 ft 360 kts 268°
2026-04-30 03:28 34.66106 -110.41977 38214 ft 361 kts 268°
2026-04-30 03:29 34.66363 -110.48071 38210 ft 361 kts 268°
2026-04-30 03:29 34.66617 -110.54173 38210 ft 361 kts 269°
2026-04-30 03:30 34.66908 -110.61253 38208 ft 361 kts 268°
2026-04-30 03:30 34.67110 -110.66210 38213 ft 361 kts 268°
2026-04-30 03:31 34.67351 -110.72214 38206 ft 362 kts 269°
2026-04-30 03:32 34.67701 -110.81138 38212 ft 362 kts 268°
2026-04-30 03:33 34.68299 -110.96658 38207 ft 362 kts 268°
2026-04-30 03:33 34.68529 -111.02785 38210 ft 362 kts 268°
2026-04-30 03:34 34.68758 -111.08893 38207 ft 362 kts 268°
2026-04-30 03:34 34.68983 -111.15006 38210 ft 362 kts 269°
2026-04-30 03:35 34.69204 -111.21094 38214 ft 362 kts 268°
2026-04-30 03:35 34.69424 -111.27281 38216 ft 363 kts 268°
2026-04-30 03:36 34.69637 -111.33392 38215 ft 364 kts 268°
2026-04-30 03:36 34.69850 -111.39562 38213 ft 364 kts 269°
2026-04-30 03:37 34.70060 -111.45710 38211 ft 364 kts 268°
2026-04-30 03:37 34.70266 -111.51876 38210 ft 364 kts 268°
2026-04-30 03:38 34.70471 -111.58041 38199 ft 364 kts 268°
2026-04-30 03:38 34.70670 -111.64128 38193 ft 364 kts 268°
2026-04-30 03:39 34.70861 -111.70193 38183 ft 365 kts 267°
2026-04-30 03:39 34.71059 -111.76385 38169 ft 366 kts 268°
2026-04-30 03:40 34.71252 -111.82519 38165 ft 365 kts 267°
2026-04-30 03:40 34.71442 -111.88699 38162 ft 366 kts 268°
2026-04-30 03:41 34.71630 -111.94901 38155 ft 366 kts 267°
2026-04-30 03:41 34.71815 -112.01095 38157 ft 367 kts 268°
2026-04-30 03:42 34.71997 -112.07286 38165 ft 367 kts 268°
2026-04-30 03:42 34.72160 -112.12849 38167 ft 367 kts 267°
2026-04-30 03:43 34.72326 -112.18584 38171 ft 366 kts 268°
2026-04-30 03:43 34.72523 -112.25675 38178 ft 366 kts 267°
2026-04-30 03:44 34.72694 -112.31894 38178 ft 366 kts 268°
2026-04-30 03:44 34.72861 -112.38098 38178 ft 367 kts 268°
2026-04-30 03:45 34.73024 -112.44294 38173 ft 367 kts 268°
2026-04-30 03:45 34.73174 -112.50150 38171 ft 366 kts 268°
2026-04-30 03:46 34.73329 -112.56329 38172 ft 366 kts 268°
2026-04-30 03:46 34.73472 -112.62135 38170 ft 366 kts 267°
2026-04-30 03:47 34.73623 -112.68462 38176 ft 367 kts 266°
2026-04-30 03:47 34.73770 -112.74674 38173 ft 367 kts 267°
2026-04-30 03:48 34.73914 -112.80879 38173 ft 367 kts 266°
2026-04-30 03:48 34.73992 -112.84217 38180 ft 366 kts 267°
2026-04-30 03:49 34.74320 -112.98653 38177 ft 366 kts 266°
2026-04-30 03:50 34.74450 -113.04874 38181 ft 366 kts 266°
2026-04-30 03:50 34.74578 -113.11064 38171 ft 366 kts 266°
2026-04-30 03:51 34.74702 -113.17227 38158 ft 366 kts 266°
2026-04-30 03:51 34.74819 -113.23202 38140 ft 366 kts 267°
2026-04-30 03:52 34.74940 -113.29479 38139 ft 367 kts 267°
2026-04-30 03:52 34.75058 -113.35674 38138 ft 367 kts 266°
2026-04-30 03:53 34.75174 -113.41888 38138 ft 367 kts 267°
2026-04-30 03:53 34.75286 -113.48099 38127 ft 368 kts 267°
2026-04-30 03:54 34.75394 -113.54280 38139 ft 368 kts 266°
2026-04-30 03:54 34.75500 -113.60474 38146 ft 368 kts 266°
2026-04-30 03:55 34.75602 -113.66666 38155 ft 368 kts 265°
2026-04-30 03:55 34.75700 -113.72858 38143 ft 369 kts 265°
2026-04-30 03:56 34.75794 -113.79095 38144 ft 368 kts 266°
2026-04-30 03:56 34.75885 -113.85279 38133 ft 368 kts 265°
2026-04-30 03:57 34.75972 -113.91502 38126 ft 367 kts 266°
2026-04-30 03:57 34.76057 -113.97731 38115 ft 367 kts 265°
2026-04-30 03:58 34.76139 -114.03889 38105 ft 367 kts 266°
2026-04-30 03:58 34.76218 -114.10126 38091 ft 367 kts 266°
2026-04-30 03:59 34.76294 -114.16293 38057 ft 368 kts 266°
2026-04-30 03:59 34.76367 -114.22523 38047 ft 367 kts 265°
2026-04-30 04:00 34.76437 -114.28720 38034 ft 368 kts 265°
2026-04-30 04:00 34.76504 -114.34961 38027 ft 368 kts 266°
2026-04-30 04:01 34.76568 -114.41165 38021 ft 368 kts 265°
2026-04-30 04:01 34.76630 -114.47417 38017 ft 369 kts 266°
2026-04-30 04:02 34.76767 -114.53627 38021 ft 369 kts 267°
2026-04-30 04:02 34.76911 -114.59858 38034 ft 369 kts 266°
2026-04-30 04:03 34.77051 -114.66086 38044 ft 370 kts 266°
2026-04-30 04:03 34.77191 -114.72384 38054 ft 371 kts 266°
2026-04-30 04:04 34.77327 -114.78603 38060 ft 370 kts 266°
2026-04-30 04:04 34.77460 -114.84861 38059 ft 370 kts 265°
2026-04-30 04:05 34.77587 -114.91085 38057 ft 370 kts 266°
2026-04-30 04:05 34.77713 -114.97394 38054 ft 371 kts 266°
2026-04-30 04:06 34.77836 -115.03599 38068 ft 368 kts 266°
2026-04-30 04:06 34.77957 -115.09758 38062 ft 358 kts 266°
2026-04-30 04:07 34.78070 -115.15743 38057 ft 353 kts 265°
2026-04-30 04:08 34.78229 -115.24702 38057 ft 352 kts 266°
2026-04-30 04:08 34.78330 -115.30617 38066 ft 352 kts 266°
2026-04-30 04:09 34.78428 -115.36610 37696 ft 360 kts 265°
2026-04-30 04:09 34.78478 -115.39646 37245 ft 359 kts 266°
2026-04-30 04:09 34.78527 -115.42639 36807 ft 357 kts 266°
2026-04-30 04:09 34.78576 -115.45643 36356 ft 356 kts 265°
2026-04-30 04:10 34.78624 -115.48663 35883 ft 356 kts 265°
2026-04-30 04:10 34.78670 -115.51640 35426 ft 357 kts 265°
2026-04-30 04:10 34.78716 -115.54658 34956 ft 357 kts 265°
2026-04-30 04:10 34.78760 -115.57663 34486 ft 359 kts 265°
2026-04-30 04:11 34.78804 -115.60720 34001 ft 360 kts 265°
2026-04-30 04:11 34.78847 -115.63773 33540 ft 362 kts 265°
2026-04-30 04:11 34.78889 -115.66816 33054 ft 361 kts 265°
2026-04-30 04:11 34.78932 -115.69833 32575 ft 358 kts 265°
2026-04-30 04:12 34.78975 -115.72854 32104 ft 354 kts 264°
2026-04-30 04:12 34.79015 -115.75825 31635 ft 351 kts 264°
2026-04-30 04:12 34.79054 -115.78786 31165 ft 349 kts 265°
2026-04-30 04:12 34.79093 -115.81721 30709 ft 345 kts 265°
2026-04-30 04:13 34.79145 -115.84620 30244 ft 343 kts 265°
2026-04-30 04:13 34.79202 -115.87485 29792 ft 340 kts 265°
2026-04-30 04:13 34.79258 -115.90354 29337 ft 338 kts 266°
2026-04-30 04:13 34.79312 -115.93202 28895 ft 337 kts 266°
2026-04-30 04:14 34.79365 -115.96025 28447 ft 336 kts 266°
2026-04-30 04:14 34.79418 -115.98844 28003 ft 334 kts 266°
2026-04-30 04:14 34.79470 -116.01664 27557 ft 332 kts 266°
2026-04-30 04:14 34.79521 -116.04468 27115 ft 329 kts 266°
2026-04-30 04:15 34.79570 -116.07214 26684 ft 328 kts 267°
2026-04-30 04:15 34.79619 -116.09955 26257 ft 327 kts 266°
2026-04-30 04:15 34.79667 -116.12738 25815 ft 326 kts 266°
2026-04-30 04:15 34.79713 -116.15466 25393 ft 325 kts 267°
2026-04-30 04:16 34.79760 -116.18221 24963 ft 325 kts 266°
2026-04-30 04:16 34.79805 -116.20947 24524 ft 325 kts 267°
2026-04-30 04:16 34.79838 -116.23653 24107 ft 322 kts 266°
2026-04-30 04:16 34.79767 -116.26369 23748 ft 320 kts 265°
2026-04-30 04:17 34.79679 -116.29076 23714 ft 317 kts 265°
2026-04-30 04:17 34.79593 -116.31725 23874 ft 318 kts 265°
2026-04-30 04:17 34.79501 -116.34483 23726 ft 327 kts 265°
2026-04-30 04:17 34.79411 -116.37215 23658 ft 325 kts 265°
2026-04-30 04:18 34.79321 -116.39966 23569 ft 324 kts 265°
2026-04-30 04:18 34.79229 -116.42730 23478 ft 323 kts 264°
2026-04-30 04:18 34.79137 -116.45451 23393 ft 323 kts 265°
2026-04-30 04:18 34.79046 -116.48151 23313 ft 323 kts 264°
2026-04-30 04:19 34.78953 -116.50879 23229 ft 323 kts 265°
2026-04-30 04:19 34.78859 -116.53609 23140 ft 322 kts 265°
2026-04-30 04:19 34.78707 -116.56338 23058 ft 322 kts 261°
2026-04-30 04:19 34.78454 -116.59018 22859 ft 321 kts 261°
2026-04-30 04:20 34.78195 -116.61734 22680 ft 320 kts 262°
2026-04-30 04:20 34.77938 -116.64415 22409 ft 320 kts 262°
2026-04-30 04:20 34.77674 -116.67127 22135 ft 319 kts 261°
2026-04-30 04:20 34.77413 -116.69785 22056 ft 318 kts 261°
2026-04-30 04:21 34.77144 -116.72468 21910 ft 321 kts 261°
2026-04-30 04:21 34.76872 -116.75155 21744 ft 318 kts 261°
2026-04-30 04:21 34.76599 -116.77805 21576 ft 318 kts 261°
2026-04-30 04:21 34.76321 -116.80477 21378 ft 317 kts 261°
2026-04-30 04:22 34.76043 -116.83118 21191 ft 316 kts 261°
2026-04-30 04:22 34.75760 -116.85778 21030 ft 316 kts 261°
2026-04-30 04:22 34.75478 -116.88426 20822 ft 317 kts 261°
2026-04-30 04:22 34.75194 -116.91090 20628 ft 315 kts 261°
2026-04-30 04:23 34.74918 -116.93697 20449 ft 315 kts 261°
2026-04-30 04:23 34.74637 -116.96335 20271 ft 315 kts 261°
2026-04-30 04:23 34.74356 -116.98971 20082 ft 314 kts 261°
2026-04-30 04:23 34.74070 -117.01611 19906 ft 315 kts 261°
2026-04-30 04:24 34.73780 -117.04259 19727 ft 315 kts 261°
2026-04-30 04:24 34.73493 -117.06889 19531 ft 315 kts 261°
2026-04-30 04:24 34.73204 -117.09535 19353 ft 315 kts 261°
2026-04-30 04:24 34.72918 -117.12158 19161 ft 314 kts 261°
2026-04-30 04:25 34.72632 -117.14778 18977 ft 314 kts 261°
2026-04-30 04:25 34.72345 -117.17415 18800 ft 313 kts 261°
2026-04-30 04:25 34.72063 -117.20031 18654 ft 313 kts 262°
2026-04-30 04:25 34.71825 -117.22673 18466 ft 314 kts 263°
2026-04-30 04:26 34.71593 -117.25291 18280 ft 313 kts 263°
2026-04-30 04:26 34.71352 -117.27928 18095 ft 313 kts 262°
2026-04-30 04:26 34.71109 -117.30531 17898 ft 312 kts 262°
2026-04-30 04:26 34.70860 -117.33157 17734 ft 312 kts 262°
2026-04-30 04:27 34.70610 -117.35745 17552 ft 311 kts 262°
2026-04-30 04:27 34.70356 -117.38341 17396 ft 311 kts 262°
2026-04-30 04:27 34.70096 -117.40965 17201 ft 311 kts 262°
2026-04-30 04:27 34.69839 -117.43543 17039 ft 310 kts 262°
2026-04-30 04:28 34.69574 -117.46168 16835 ft 312 kts 262°
2026-04-30 04:28 34.69307 -117.48779 16670 ft 310 kts 262°
2026-04-30 04:28 34.69043 -117.51344 16476 ft 311 kts 262°
2026-04-30 04:28 34.68770 -117.53980 16269 ft 309 kts 262°
2026-04-30 04:29 34.68502 -117.56549 16128 ft 310 kts 262°
2026-04-30 04:29 34.68229 -117.59157 15912 ft 310 kts 262°
2026-04-30 04:29 34.67955 -117.61762 15781 ft 311 kts 262°
2026-04-30 04:29 34.67685 -117.64339 15551 ft 311 kts 262°
2026-04-30 04:30 34.67412 -117.66950 15367 ft 310 kts 261°
2026-04-30 04:30 34.67138 -117.69558 15229 ft 311 kts 261°
2026-04-30 04:30 34.66865 -117.72146 15013 ft 310 kts 261°
2026-04-30 04:30 34.66589 -117.74757 14848 ft 309 kts 261°
2026-04-30 04:31 34.66317 -117.77329 14682 ft 309 kts 262°
2026-04-30 04:31 34.66040 -117.79931 14488 ft 310 kts 261°
2026-04-30 04:31 34.65762 -117.82528 14328 ft 309 kts 262°
2026-04-30 04:31 34.65487 -117.85105 14158 ft 307 kts 261°
2026-04-30 04:32 34.65218 -117.87605 13966 ft 288 kts 261°
2026-04-30 04:32 34.64963 -117.89967 13768 ft 280 kts 261°
2026-04-30 04:32 34.64708 -117.92308 13395 ft 279 kts 262°
2026-04-30 04:32 34.64457 -117.94613 13051 ft 275 kts 261°
2026-04-30 04:33 34.64209 -117.96882 12809 ft 269 kts 261°
2026-04-30 04:33 34.63962 -117.99134 12520 ft 269 kts 261°
2026-04-30 04:33 34.63716 -118.01371 12257 ft 271 kts 262°
2026-04-30 04:33 34.63466 -118.03647 11991 ft 272 kts 262°
2026-04-30 04:34 34.63207 -118.05907 11717 ft 272 kts 259°
2026-04-30 04:34 34.62772 -118.08136 11445 ft 270 kts 254°
2026-04-30 04:34 34.62284 -118.10313 11179 ft 270 kts 254°
2026-04-30 04:34 34.61794 -118.12517 10905 ft 269 kts 255°
2026-04-30 04:35 34.61312 -118.14683 10642 ft 265 kts 255°
2026-04-30 04:35 34.60831 -118.16840 10374 ft 263 kts 254°
2026-04-30 04:35 34.60355 -118.18978 10112 ft 263 kts 254°
2026-04-30 04:35 34.59881 -118.21100 9855 ft 262 kts 254°
2026-04-30 04:36 34.59404 -118.23235 9590 ft 261 kts 255°
2026-04-30 04:36 34.58928 -118.25367 9329 ft 261 kts 255°
2026-04-30 04:36 34.58455 -118.27477 9072 ft 261 kts 254°
2026-04-30 04:36 34.57980 -118.29597 8806 ft 261 kts 254°
2026-04-30 04:37 34.57504 -118.31724 8553 ft 261 kts 255°
2026-04-30 04:37 34.57029 -118.33842 8279 ft 261 kts 255°
2026-04-30 04:37 34.56553 -118.35962 8088 ft 259 kts 255°
2026-04-30 04:37 34.56083 -118.38052 8269 ft 259 kts 255°
2026-04-30 04:38 34.55601 -118.40192 8274 ft 264 kts 255°
2026-04-30 04:38 34.55114 -118.42351 8101 ft 264 kts 255°
2026-04-30 04:38 34.54635 -118.44482 7838 ft 263 kts 255°
2026-04-30 04:38 34.54143 -118.46620 7521 ft 263 kts 252°
2026-04-30 04:39 34.53271 -118.48537 7188 ft 262 kts 229°
2026-04-30 04:39 34.51844 -118.49845 6869 ft 260 kts 205°
2026-04-30 04:39 34.50152 -118.50638 6489 ft 260 kts 199°
2026-04-30 04:39 34.48443 -118.51324 6121 ft 253 kts 191°
2026-04-30 04:40 34.46754 -118.51444 6059 ft 232 kts 176°
2026-04-30 04:40 34.45204 -118.51324 6013 ft 222 kts 175°
2026-04-30 04:40 34.43641 -118.51185 5831 ft 221 kts 174°
2026-04-30 04:40 34.42141 -118.51045 5527 ft 214 kts 174°
2026-04-30 04:41 34.40713 -118.50909 5093 ft 202 kts 174°
2026-04-30 04:41 34.39343 -118.50780 4588 ft 191 kts 174°
2026-04-30 04:41 34.38076 -118.50659 4199 ft 176 kts 175°
2026-04-30 04:41 34.36884 -118.50546 4021 ft 169 kts 175°
2026-04-30 04:42 34.35727 -118.50436 3907 ft 162 kts 175°
2026-04-30 04:42 34.34604 -118.50329 3695 ft 162 kts 175°
2026-04-30 04:42 34.33483 -118.50221 3443 ft 158 kts 175°
2026-04-30 04:42 34.32401 -118.50118 3210 ft 157 kts 175°
2026-04-30 04:43 34.31303 -118.50015 2975 ft 157 kts 175°
2026-04-30 04:43 34.30230 -118.49913 2780 ft 152 kts 175°
2026-04-30 04:43 34.29188 -118.49814 2544 ft 150 kts 176°
2026-04-30 04:43 34.28158 -118.49716 2296 ft 145 kts 175°
2026-04-30 04:44 34.27168 -118.49623 2082 ft 142 kts 175°
2026-04-30 04:44 34.26184 -118.49530 1864 ft 141 kts 175°
2026-04-30 04:44 34.25208 -118.49453 1690 ft 140 kts 178°
2026-04-30 04:44 34.24250 -118.49371 1527 ft 134 kts 174°
2026-04-30 04:45 34.23362 -118.49275 1209 ft 124 kts 174°
2026-04-30 04:45 34.22499 -118.49181 992 ft 123 kts 176°
2026-04-30 04:45 34.21662 -118.49097 841 ft 117 kts 176°
2026-04-30 04:45 34.20921 -118.49027 784 ft 92 kts 174°
2026-04-30 04:46 34.20568 -118.48998 775 ft 15 kts 177°
2026-04-30 04:46 34.20469 -118.49026 773 ft 7 kts 201°
2026-04-30 04:46 34.20421 -118.49074 772 ft 11 kts 278°
2026-04-30 04:46 34.20490 -118.49109 773 ft 12 kts 356°
2026-04-30 04:47 34.20581 -118.49114 776 ft 13 kts 359°
2026-04-30 04:47 34.20637 -118.49121 776 ft 4 kts 348°
2026-04-30 04:47 34.20657 -118.49159 777 ft 7 kts 272°
2026-04-30 04:47 34.20656 -118.49233 777 ft 10 kts 270°
2026-04-30 04:48 34.20672 -118.49326 777 ft 10 kts 282°
2026-04-30 04:48 34.20657 -118.49276 777 ft 11 kts 86°
2026-04-30 04:48 34.20656 -118.49165 777 ft 14 kts 91°
2026-04-30 04:48 34.20736 -118.49130 778 ft 15 kts 354°
2026-04-30 04:49 34.20845 -118.49142 781 ft 16 kts 356°
2026-04-30 04:49 34.20960 -118.49152 784 ft 16 kts 355°
2026-04-30 04:49 34.21080 -118.49161 787 ft 17 kts 355°
2026-04-30 04:49 34.21206 -118.49174 791 ft 18 kts 356°
2026-04-30 04:50 34.21335 -118.49186 794 ft 19 kts 353°
2026-04-30 04:50 34.21471 -118.49200 798 ft 19 kts 352°
2026-04-30 04:50 34.21612 -118.49221 801 ft 20 kts 358°
2026-04-30 04:50 34.21685 -118.49334 802 ft 20 kts 278°
2026-04-30 04:51 34.21710 -118.49511 804 ft 22 kts 278°
2026-04-30 04:51 34.21727 -118.49628 805 ft 12 kts 280°
2026-04-30 04:51 34.21798 -118.49683 805 ft 13 kts 351°
2026-04-30 04:51 34.21858 -118.49693 806 ft 5 kts
2026-04-30 04:52 34.21872 -118.49670 806 ft 0 kts 74°
2026-04-30 04:52 34.21874 -118.49662 806 ft 0 kts 76°